Location: Poughquag
(41.6090°N, 73.6820°W)
Time: 06:27:10
(UTC-05:00)

Hubble Space Telescope - Pass Details

Date: 23 November 2019
Orbit: 536 x 540 km, 28.5° (Epoch: 14 December)

Event Time Altitude Azimuth Distance (km) Brightness Sun altitude
Rises 17:04:45 0° 227° (SW) 2,665 5.8 -6.9°
Reaches altitude 10° 17:08:19 10° 195° (SSW) 1,776 3.9 -7.6°
Maximum altitude 17:09:51 12° 173° (S) 1,662 3.4 -7.8°
Drops below altitude 10° 17:11:23 10° 151° (SSE) 1,778 3.3 -8.1°
Enters shadow 17:14:50 - 119° (ESE) 2,625 3.9 -8.7°
